• In Sweden
  • List of Countries
  • For 7 days
  • Water Temperature
  • Satellite Maps
  • Weather Map
  • Weather Widgets
  • user-avatar
    Login

    Hourly Weather Newcastle upon Tyne

    Today, 17 November, Friday

    Time Temperature Precipitation Wind Pressure Humidity
    00:00 +3°C° 0 mm 4 mps 763 mmHg 81%
    01:00 +2°C° 0 mm 5 mps 763 mmHg 81%
    02:00 +1°C° 0 mm 5 mps 763 mmHg 82%
    03:00 +1°C° 0 mm 5 mps 763 mmHg 82%
    04:00 +1°C° 0 mm 5 mps 763 mmHg 83%
    05:00 +1°C° 0 mm 5 mps 763 mmHg 83%
    06:00 +1°C° 0 mm 5 mps 763 mmHg 83%
    07:00 +2°C° 0 mm 5 mps 763 mmHg 82%
    08:00 +2°C° 0 mm 6 mps 763 mmHg 82%
    09:00 +3°C° 0 mm 6 mps 763 mmHg 81%
    10:00 +4°C° 0 mm 7 mps 762 mmHg 78%
    11:00 +5°C° 0 mm 7 mps 762 mmHg 75%
    12:00 +5°C° 0 mm 7 mps 762 mmHg 73%
    13:00 +5°C° 0 mm 7 mps 761 mmHg 74%
    14:00 +5°C° 0 mm 7 mps 761 mmHg 74%
    15:00 +5°C° 0 mm 7 mps 761 mmHg 75%
    16:00 +5°C° 0 mm 7 mps 761 mmHg 77%
    17:00 +4°C° 0 mm 7 mps 760 mmHg 79%
    18:00 +4°C° 0 mm 7 mps 760 mmHg 81%
    19:00 +4°C° 0 mm 7 mps 760 mmHg 82%
    20:00 +4°C° 0 mm 7 mps 760 mmHg 82%
    21:00 +4°C° 0 mm 7 mps 759 mmHg 83%
    22:00 +4°C° 0 mm 8 mps 759 mmHg 83%
    23:00 +4°C° 0 mm 8 mps 758 mmHg 83%

    Tomorrow, 18 November, Saturday

    Time Temperature Precipitation Wind Pressure Humidity
    00:00 +4°C° 0 mm 8 mps 758 mmHg 82%
    01:00 +4°C° 0 mm 8 mps 758 mmHg 81%
    02:00 +4°C° 0 mm 8 mps 757 mmHg 81%
    03:00 +4°C° 0 mm 8 mps 757 mmHg 80%
    04:00 +4°C° 0.1 mm 8 mps 757 mmHg 79%
    05:00 +4°C° 0.1 mm 8 mps 757 mmHg 79%
    06:00 +4°C° 0.1 mm 8 mps 757 mmHg 78%
    07:00 +4°C° 0 mm 7 mps 757 mmHg 77%
    08:00 +4°C° 0 mm 7 mps 758 mmHg 76%
    09:00 +3°C° 0 mm 7 mps 758 mmHg 75%
    10:00 +4°C° 0 mm 7 mps 758 mmHg 71%
    11:00 +4°C° 0 mm 7 mps 758 mmHg 66%
    12:00 +5°C° 0 mm 7 mps 758 mmHg 62%
    13:00 +5°C° 0 mm 7 mps 758 mmHg 63%
    14:00 +4°C° 0 mm 6 mps 758 mmHg 65%
    15:00 +4°C° 0 mm 6 mps 758 mmHg 66%
    16:00 +3°C° 0 mm 6 mps 758 mmHg 68%
    17:00 +2°C° 0 mm 6 mps 759 mmHg 71%
    18:00 +2°C° 0 mm 6 mps 759 mmHg 73%
    19:00 +1°C° 0 mm 6 mps 759 mmHg 73%
    20:00 +1°C° 0 mm 6 mps 759 mmHg 73%
    21:00 +1°C° 0 mm 6 mps 759 mmHg 74%
    22:00 +1°C° 0 mm 6 mps 759 mmHg 74%
    23:00 -1°C° 0 mm 6 mps 759 mmHg 75%

    Day after tomorrow, 19 November, Sunday

    Time Temperature Precipitation Wind Pressure Humidity
    00:00 -1°C° 0 mm 6 mps 759 mmHg 76%
    01:00 -1°C° 0 mm 6 mps 760 mmHg 77%
    02:00 0°C° 0 mm 5 mps 760 mmHg 79%
    03:00 0°C° 0 mm 5 mps 760 mmHg 80%
    04:00 0°C° 0 mm 5 mps 760 mmHg 81%
    05:00 0°C° 0 mm 5 mps 760 mmHg 83%
    06:00 -1°C° 0 mm 4 mps 760 mmHg 84%
    07:00 0°C° 0 mm 4 mps 760 mmHg 83%
    08:00 0°C° 0 mm 4 mps 761 mmHg 81%
    09:00 +2°C° 0 mm 3 mps 761 mmHg 80%
    10:00 +3°C° 0 mm 3 mps 761 mmHg 76%
    11:00 +4°C° 0 mm 3 mps 761 mmHg 73%
    12:00 +6°C° 0 mm 2 mps 761 mmHg 69%
    13:00 +6°C° 0 mm 2 mps 760 mmHg 70%
    14:00 +5°C° 0 mm 2 mps 760 mmHg 70%
    15:00 +5°C° 0 mm 2 mps 760 mmHg 71%
    16:00 +5°C° 0.1 mm 2 mps 759 mmHg 73%
    17:00 +5°C° 0.1 mm 2 mps 759 mmHg 75%
    18:00 +5°C° 0.1 mm 2 mps 759 mmHg 78%
    19:00 +4°C° 0.1 mm 3 mps 758 mmHg 80%
    20:00 +4°C° 0.1 mm 3 mps 757 mmHg 82%
    21:00 +4°C° 0.1 mm 4 mps 757 mmHg 85%
    22:00 +3°C° 0.6 mm 5 mps 756 mmHg 87%
    23:00 +4°C° 0.6 mm 6 mps 755 mmHg 89%

    20 November, Monday

    Time Temperature Precipitation Wind Pressure Humidity
    00:00 +5°C° 0.6 mm 6 mps 754 mmHg 91%
    01:00 +6°C° 0.4 mm 7 mps 752 mmHg 91%
    02:00 +8°C° 0.4 mm 7 mps 751 mmHg 91%
    03:00 +9°C° 0.4 mm 8 mps 750 mmHg 91%
    04:00 +10°C° 0.1 mm 8 mps 749 mmHg 90%
    05:00 +10°C° 0.1 mm 8 mps 748 mmHg 89%
    06:00 +10°C° 0.1 mm 8 mps 748 mmHg 88%
    07:00 +10°C° 0.1 mm 8 mps 747 mmHg 88%
    08:00 +10°C° 0.1 mm 8 mps 747 mmHg 87%
    09:00 +10°C° 0.1 mm 7 mps 746 mmHg 86%
    10:00 +10°C° 0.3 mm 7 mps 746 mmHg 85%
    11:00 +10°C° 0.3 mm 8 mps 746 mmHg 84%
    12:00 +10°C° 0.3 mm 8 mps 746 mmHg 82%
    13:00 +10°C° 0.1 mm 8 mps 746 mmHg 83%
    14:00 +10°C° 0.1 mm 7 mps 747 mmHg 83%
    15:00 +10°C° 0.1 mm 7 mps 747 mmHg 83%
    16:00 +10°C° 0 mm 6 mps 747 mmHg 86%
    17:00 +10°C° 0 mm 6 mps 748 mmHg 88%
    18:00 +9°C° 0 mm 5 mps 749 mmHg 90%
    19:00 +10°C° 0.1 mm 4 mps 749 mmHg 90%
    20:00 +10°C° 0.1 mm 4 mps 750 mmHg 91%
    21:00 +9°C° 0.1 mm 3 mps 750 mmHg 91%
    22:00 +9°C° 0 mm 3 mps 751 mmHg 91%
    23:00 +9°C° 0 mm 2 mps 751 mmHg 92%

    21 November, Tuesday

    Time Temperature Precipitation Wind Pressure Humidity
    00:00 +9°C° 0 mm 2 mps 751 mmHg 92%
    01:00 +9°C° 0.1 mm 2 mps 750 mmHg 92%
    02:00 +9°C° 0.1 mm 3 mps 750 mmHg 92%
    03:00 +9°C° 0.1 mm 3 mps 750 mmHg 93%
    04:00 +9°C° 0.6 mm 3 mps 749 mmHg 93%
    05:00 +9°C° 0.6 mm 3 mps 748 mmHg 93%
    06:00 +9°C° 0.6 mm 3 mps 748 mmHg 93%
    07:00 +10°C° 2.2 mm 4 mps 747 mmHg 93%
    08:00 +10°C° 2.2 mm 4 mps 747 mmHg 93%
    09:00 +10°C° 2.2 mm 5 mps 746 mmHg 93%
    10:00 +10°C° 0.6 mm 5 mps 746 mmHg 92%
    11:00 +12°C° 0.6 mm 5 mps 746 mmHg 90%
    12:00 +11°C° 0.6 mm 6 mps 746 mmHg 89%
    13:00 +10°C° 0.1 mm 5 mps 746 mmHg 89%
    14:00 +10°C° 0.1 mm 5 mps 746 mmHg 88%
    15:00 +10°C° 0.1 mm 5 mps 746 mmHg 88%
    16:00 +10°C° 0 mm 4 mps 746 mmHg 88%
    17:00 +8°C° 0 mm 4 mps 747 mmHg 89%
    18:00 +9°C° 0 mm 3 mps 747 mmHg 89%
    19:00 +9°C° 0.2 mm 3 mps 747 mmHg 90%
    20:00 +9°C° 0.2 mm 3 mps 747 mmHg 90%
    21:00 +9°C° 0.2 mm 2 mps 747 mmHg 91%
    22:00 +9°C° 0.6 mm 3 mps 746 mmHg 91%
    23:00 +9°C° 0.6 mm 3 mps 746 mmHg 92%

    22 November, Wednesday

    Time Temperature Precipitation Wind Pressure Humidity
    00:00 +8°C° 0.6 mm 4 mps 745 mmHg 92%
    01:00 +9°C° 0.1 mm 5 mps 745 mmHg 91%
    02:00 +10°C° 0.1 mm 5 mps 744 mmHg 90%
    03:00 +10°C° 0.1 mm 6 mps 743 mmHg 89%
    04:00 +10°C° 0 mm 7 mps 742 mmHg 87%
    05:00 +11°C° 0 mm 7 mps 742 mmHg 86%
    06:00 +11°C° 0 mm 8 mps 741 mmHg 85%
    07:00 +11°C° 0 mm 8 mps 741 mmHg 84%
    08:00 +11°C° 0 mm 8 mps 741 mmHg 84%
    09:00 +11°C° 0 mm 8 mps 741 mmHg 84%
    10:00 +11°C° 0 mm 8 mps 741 mmHg 83%
    11:00 +11°C° 0 mm 8 mps 741 mmHg 81%
    12:00 +11°C° 0 mm 8 mps 741 mmHg 80%
    13:00 +11°C° 0 mm 7 mps 741 mmHg 80%
    14:00 +11°C° 0 mm 7 mps 740 mmHg 79%
    15:00 +11°C° 0 mm 7 mps 740 mmHg 79%
    16:00 +11°C° 0 mm 7 mps 739 mmHg 78%
    17:00 +11°C° 0 mm 7 mps 739 mmHg 76%
    18:00 +11°C° 0 mm 7 mps 738 mmHg 75%
    19:00 +11°C° 0 mm 8 mps 738 mmHg 73%
    20:00 +11°C° 0 mm 8 mps 737 mmHg 70%
    21:00 +11°C° 0 mm 9 mps 736 mmHg 68%
    22:00 +11°C° 0.1 mm 10 mps 736 mmHg 70%
    23:00 +11°C° 0.1 mm 10 mps 735 mmHg 73%
    Show more